Temperature
26 25 24 24 23 22 22 21 21 21 20 20 20 20 21 20 20 20 20 20 19 19 18 18 17 17 16 16 16 16 16 16 16 16 17 17 18 18 19 19 19 19 19
23 22 22 21 21 21 20 20 20 20 20 20 20 21 21 20 20 20 20 19 19 19 18 17 18 17 17 17 16 16 16 16 16 16 16 16 17 19 19 20 19 19 19
21 21 20 20 19 20 20 19 19 19 19 20 20 20 20 20 20 20 19 19 19 18 18 18 18 17 17 16 16 16 15 15 16 15 15 16 17 17 18 19 19 20 20
19 19 18 18 18 18 19 19 19 19 19 19 19 19 19 19 20 20 19 19 18 18 17 17 17 17 17 16 16 16 16 15 15 15 15 15 15 15 16 17 18 19 19
18 17 17 17 18 18 18 18 18 18 18 18 18 18 18 19 19 19 19 18 18 18 17 17 17 17 17 16 16 16 16 15 14 14 14 15 15 15 15 15 17 18 18
18 17 17 17 17 17 17 17 17 17 17 17 17 17 17 18 18 18 18 18 18 17 17 17 17 17 16 16 16 16 16 15 15 14 14 14 14 14 15 15 15 16 17
18 17 16 16 16 16 16 16 16 16 16 16 16 16 16 16 16 17 17 17 17 17 17 17 16 16 16 16 16 16 15 15 14 14 14 14 14 14 14 14 14 15 16
19 18 17 16 16 15 15 15 15 15 15 15 15 15 15 15 15 15 15 16 16 16 16 16 16 16 15 15 15 15 15 14 14 14 14 14 14 14 14 14 14 14 15
20 19 18 17 16 15 14 14 14 14 14 14 14 14 14 15 15 15 15 15 15 15 15 15 15 15 15 15 15 14 14 14 14 14 14 14 14 14 14 14 14 14 14
19 19 18 17 16 15 14 14 13 13 13 13 13 13 13 13 14 14 14 14 14 14 15 15 15 15 15 15 14 14 14 14 14 14 14 14 14 14 14 14 14 14 14
18 17 17 16 15 15 14 14 13 12 12 12 12 12 12 12 12 12 12 13 13 14 14 14 14 14 14 14 14 14 14 14 14 14 13 13 13 14 14 14 14 14 14
17 17 16 15 15 14 13 13 12 12 12 11 11 11 11 11 11 11 11 12 12 12 13 13 14 14 14 14 14 14 14 14 14 13 13 13 13 13 14 14 14 14 14
17 16 16 15 14 13 13 12 12 12 11 11 11 11 11 10 10 10 10 10 11 11 11 12 12 13 13 13 13 13 13 13 13 13 13 13 13 13 13 13 13 13 13
17 16 16 15 14 13 13 13 12 12 11 11 11 11 10 10 10 10 10 10 10 10 10 11 11 12 12 13 13 13 13 13 13 13 13 12 12 12 12 12 13 13 13
17 16 15 15 14 14 13 13 12 12 12 11 11 11 11 10 10 10 10 10 10 10 10 10 10 11 11 12 12 13 13 13 13 12 12 12 12 12 12 12 12 12 12
16 15 15 14 14 13 13 13 12 12 12 11 11 11 11 10 10 10 10 10 10 10 10 10 10 10 10 11 12 12 12 12 12 12 12 12 12 11 11 11 12 12 12
15 15 14 14 13 13 12 12 12 12 11 11 11 11 11 10 10 10 10 10 10 9 9 9 9 10 10 10 11 11 12 12 12 12 12 11 11 11 11 11 11 11 11
14 14 13 13 13 12 12 12 11 11 11 11 11 10 10 10 10 10 10 9 9 9 9 9 9 9 9 10 10 11 11 12 12 12 11 11 11 11 11 11 11 11 11
14 13 13 12 12 12 12 11 11 11 10 10 10 10 10 10 9 9 9 9 9 9 9 9 9 9 9 9 10 10 10 11 11 11 11 11 11 11 11 11 11 11 10
13 13 12 12 12 12 11 11 10 10 10 10 9 9 9 9 9 9 9 9 8 8 8 8 9 9 9 9 9 10 10 10 11 11 11 11 11 10 11 11 11 11 10
13 12 12 12 11 11 11 10 10 9 9 9 8 8 8 8 8 8 8 8 8 8 8 8 8 9 9 9 9 9 9 10 10 10 10 10 10 10 10 10 11 11 10
12 12 12 11 11 11 10 9 9 8 8 7 7 7 7 7 7 8 8 8 8 8 8 8 8 9 9 9 9 9 9 9 10 10 10 10 10 10 10 10 10 10 10
12 12 11 11 10 9 8 8 7 7 6 6 6 6 6 6 7 7 7 7 7 7 8 8 8 8 8 9 9 9 8 9 9 10 10 10 10 10 10 10 10 10 10
11 11 10 9 8 7 6 6 5 5 5 5 5 5 5 6 6 6 7 7 7 7 8 8 8 8 8 8 8 8 8 8 9 9 10 11 10 10 10 10 10 11 11
10 9 8 7 6 5 5 5 4 4 4 4 5 5 5 6 6 6 6 7 7 7 8 8 8 8 8 8 8 8 8 8 8 9 10 10 10 10 10 10 11 11 11
8 7 6 5 4 4 4 4 4 4 4 4 4 5 5 5 6 6 6 7 7 7 7 7 8 8 8 8 8 7 8 8 8 9 9 10 10 10 10 10 11 11 11
Wind_Speed
2 4 6 5 6 8 8 7 8 9 6 4 3 3 3 1 1 2 6 4 1 2 2 4 5 5 4 5 6 6 7 7 6 6 7 8 9 10 10 11 11 12 12
8 9 9 9 8 11 9 7 7 5 4 4 1 1 2 1 0 2 4 4 3 0 3 2 4 5 5 6 6 5 5 7 6 6 7 7 7 7 10 9 10 12 10
9 8 9 10 9 8 6 5 5 3 2 3 1 1 1 1 2 2 3 3 2 2 2 2 4 4 5 5 5 6 7 6 6 6 5 5 5 7 7 9 7 8 8
15 14 14 13 11 9 8 4 4 2 2 1 3 3 3 4 3 3 2 4 3 5 4 4 4 4 4 6 6 4 5 6 7 6 6 7 9 7 7 8 8 9 7
15 14 14 12 11 11 9 8 5 4 3 3 4 4 6 6 5 3 1 2 4 6 7 6 5 4 5 6 5 6 6 5 7 7 7 8 8 8 8 10 9 8 6
14 13 13 12 12 12 11 11 11 10 10 8 6 5 6 8 9 8 6 4 5 5 7 7 5 4 5 5 5 6 7 7 7 7 7 8 7 7 7 9 9 9 8
13 12 11 11 10 11 11 12 12 11 11 10 9 8 8 7 7 7 7 7 6 5 4 3 3 4 5 6 6 6 7 7 8 7 7 8 8 8 9 9 9 9 8
10 10 9 9 9 9 9 9 9 9 9 9 8 7 8 7 6 7 8 7 6 7 6 4 3 5 6 7 6 6 7 7 7 9 9 8 8 8 8 9 9 9 8
7 7 7 7 7 7 6 7 6 6 7 7 8 6 6 6 7 8 7 6 7 8 8 7 6 6 7 7 7 7 7 7 7 7 8 7 7 7 8 8 8 9 8
8 9 8 7 6 6 5 5 5 5 6 6 6 7 7 7 7 7 7 7 8 8 9 9 9 8 8 8 8 8 7 6 6 6 7 7 7 7 7 8 8 9 8
9 10 10 9 9 8 8 7 6 6 6 6 6 6 6 7 7 7 7 7 7 8 8 9 10 10 9 9 8 8 8 7 6 6 7 7 8 7 6 7 6 6 6
10 11 12 11 10 10 9 8 8 8 8 8 7 7 7 8 8 9 8 9 9 9 9 9 10 11 11 9 9 9 7 6 6 5 6 7 7 7 6 5 5 4 4
13 13 12 11 10 9 9 10 10 10 10 9 9 9 9 9 10 10 10 10 10 10 10 10 10 11 11 10 10 9 7 6 4 2 4 5 6 6 5 4 2 1 2
15 15 11 9 8 8 9 10 11 11 11 10 9 10 10 11 11 11 11 11 11 11 10 10 10 11 11 12 11 9 7 5 3 1 1 2 3 4 4 2 1 2 5
19 14 11 10 9 9 8 9 10 9 9 9 10 10 10 10 11 11 11 12 12 13 11 10 9 10 11 12 10 8 9 6 4 3 2 2 3 4 3 2 2 4 6
17 15 14 13 12 11 11 11 10 10 9 10 10 10 10 10 10 10 11 12 11 11 10 10 9 10 12 11 9 8 7 6 7 6 5 4 4 4 6 9 9 7 8
18 19 18 14 11 12 10 10 10 9 9 10 10 10 10 10 10 12 11 10 9 9 9 8 9 9 9 9 9 11 7 7 8 8 7 6 5 5 5 8 11 12 11
22 19 18 17 16 14 13 11 13 12 11 11 11 10 10 11 10 10 10 9 8 9 9 9 9 8 9 8 8 10 8 7 9 9 8 7 7 6 6 7 9 9 8
18 17 19 21 17 16 15 13 13 13 13 13 11 11 11 11 11 11 10 9 8 8 9 10 10 8 7 6 7 8 7 7 9 10 10 10 8 9 10 9 10 10 9
18 17 20 19 16 14 13 13 15 14 14 14 13 12 11 12 13 12 11 10 9 9 10 11 9 8 6 4 6 7 6 7 8 9 10 11 11 11 10 9 9 10 9
20 18 17 15 13 12 11 13 15 15 14 14 13 13 12 12 13 12 11 11 10 10 10 10 9 7 6 4 5 5 5 6 8 10 10 10 14 13 10 9 9 11 10
22 21 15 14 12 12 12 14 14 14 14 14 16 15 13 15 15 11 10 10 9 10 10 10 10 7 5 5 5 5 6 5 5 8 10 12 17 14 11 9 12 14 11
19 18 17 15 13 12 12 15 15 14 16 17 17 16 16 14 14 13 12 10 9 9 9 9 8 5 4 4 4 4 3 5 4 5 12 17 17 14 9 12 13 10 5
19 17 18 18 18 16 16 16 17 16 16 17 16 15 15 14 13 11 10 10 10 9 8 8 6 3 3 3 3 3 2 2 3 5 14 19 16 11 11 10 7 5 4
17 17 18 19 21 20 19 19 17 17 17 17 16 15 14 13 12 11 10 11 9 8 7 6 5 3 3 3 5 6 4 2 4 9 11 11 10 9 8 7 6 5 4
20 20 19 21 22 22 21 20 18 17 16 15 15 12 11 10 10 10 10 11 11 9 8 6 4 4 6 7 7 8 5 2 7 10 12 12 11 10 9 9 7 5 5
Wind_Direction
30 64 57 51 72 86 96 116 118 117 131 147 170 168 160 186 150 130 109 101 77 27 335 295 335 312 306 333 320 311 309 302 293 289 288 273 255 243 236 234 236 236 235
35 40 48 49 60 65 63 79 89 114 130 115 113 93 93 224 230 90 129 153 159 92 289 14 329 320 333 302 289 307 304 302 305 304 301 295 284 267 257 233 230 233 232
55 47 46 44 50 63 72 79 83 92 72 97 181 178 100 299 258 223 186 154 145 208 249 282 282 303 296 302 335 303 295 305 309 295 288 295 292 313 301 300 277 249 232
42 45 51 47 38 39 39 41 90 87 63 34 300 295 265 260 255 221 202 150 191 215 214 227 247 266 285 296 291 329 335 306 296 296 287 278 289 295 298 298 297 288 266
58 47 51 51 45 39 35 21 36 41 25 349 314 310 293 289 289 287 238 178 231 217 208 211 216 240 260 273 291 295 285 285 286 292 297 296 294 279 274 285 292 296 290
70 61 56 52 48 43 37 32 29 32 24 11 349 329 308 302 304 310 307 284 259 236 214 205 196 222 251 273 281 280 280 276 278 280 280 280 280 282 277 279 285 287 291
72 67 60 53 50 44 37 36 30 27 25 23 14 5 352 328 310 305 297 290 285 280 260 232 193 234 259 267 267 269 271 274 274 273 272 271 271 272 272 273 278 281 284
72 69 64 57 48 44 37 34 31 25 18 17 9 11 8 355 343 338 323 312 308 309 325 324 275 255 259 268 271 276 275 275 277 281 279 274 269 266 266 265 269 276 274
48 49 46 39 34 29 31 24 21 11 4 360 348 353 4 350 345 338 330 327 325 314 321 317 298 280 270 267 270 271 275 280 281 285 286 283 276 268 264 262 256 254 262
13 12 7 4 1 353 356 1 354 346 335 332 334 335 343 333 333 327 326 329 329 325 317 307 299 287 275 267 265 270 271 278 285 285 291 296 292 282 271 263 257 245 241
351 345 339 338 332 327 333 342 336 326 319 317 317 315 311 315 314 308 309 316 315 313 309 304 296 287 277 268 262 264 271 278 285 295 304 306 304 299 289 275 263 249 228
328 324 322 321 319 319 319 318 313 306 302 300 296 292 292 294 293 293 299 301 300 300 298 300 296 286 279 274 267 263 268 275 288 301 313 315 315 314 307 294 277 251 211
317 312 306 302 300 299 297 293 288 283 280 278 277 278 279 279 277 278 279 280 282 284 288 290 291 287 283 277 269 258 254 258 272 298 314 316 322 322 321 314 298 262 167
312 308 304 298 294 287 281 278 278 275 273 267 265 265 265 266 266 267 269 269 271 274 276 278 281 285 282 275 268 258 245 234 220 217 288 325 337 340 337 341 4 118 123
314 317 320 318 311 303 294 290 286 281 278 273 269 267 265 263 262 262 263 263 263 267 267 273 281 287 284 273 267 251 240 212 188 172 147 87 58 41 32 60 81 111 119
323 327 322 317 312 308 302 296 290 284 274 270 271 271 269 271 270 269 267 264 263 265 268 272 280 288 292 300 292 260 239 199 180 169 153 137 106 84 73 73 77 90 116
328 320 315 310 304 301 295 289 290 288 285 281 279 278 275 275 273 277 278 278 282 283 283 284 285 286 292 282 265 252 235 196 180 168 164 155 136 127 108 92 82 75 75
319 316 312 309 303 300 299 295 295 289 285 281 280 277 276 275 274 274 275 276 279 282 284 279 277 280 292 279 254 250 243 202 176 167 164 152 146 145 136 115 98 86 77
314 312 308 304 301 299 296 291 292 290 287 286 281 281 279 278 275 274 274 275 274 275 274 273 268 270 283 281 253 243 239 202 176 165 158 152 148 146 136 121 111 102 93
311 305 303 299 297 296 297 293 292 289 287 287 286 284 280 278 277 275 274 274 270 269 270 269 265 261 263 273 243 232 241 206 175 159 153 153 145 142 137 130 123 116 114
307 304 300 299 297 296 292 288 289 289 291 292 293 290 285 282 276 270 267 266 266 267 265 268 267 261 252 240 217 223 243 222 175 162 158 156 149 144 136 135 129 131 128
309 308 305 300 296 296 297 299 298 298 297 295 291 286 281 278 277 270 267 265 263 263 261 260 261 252 233 219 199 213 241 262 200 167 160 154 153 148 142 135 141 146 144
311 311 310 307 311 317 317 308 304 301 297 291 286 282 278 272 268 266 265 263 259 256 255 254 252 237 212 193 172 168 237 245 235 191 155 149 150 147 144 146 152 159 161
318 320 320 321 320 318 312 304 299 295 291 287 285 281 277 271 265 258 254 252 250 248 247 251 248 216 174 172 164 145 149 201 206 163 145 143 150 152 142 149 164 187 195
327 329 326 322 316 313 306 301 296 292 288 284 281 279 274 268 265 259 250 246 244 242 241 243 238 203 170 166 166 158 155 188 181 148 148 149 153 155 154 162 177 193 178
330 328 324 318 313 308 303 300 295 288 283 281 277 272 267 262 256 253 255 236 230 221 209 195 178 133 130 141 152 153 161 220 187 163 156 155 161 162 162 167 174 181 153
Height
1469 1467 1469 1470 1471 1471 1470 1470 1475 1480 1486 1490 1494 1497 1500 1500 1502 1505 1505 1505 1505 1505 1504 1503 1502 1501 1501 1500 1499 1498 1496 1495 1495 1493 1491 1489 1488 1487 1486 1485 1485 1485 1486
1471 1468 1471 1471 1471 1469 1473 1471 1475 1481 1486 1488 1491 1495 1498 1499 1500 1502 1502 1502 1502 1502 1502 1501 1499 1499 1498 1496 1496 1495 1493 1492 1492 1491 1488 1485 1484 1482 1481 1480 1479 1479 1480
1470 1473 1473 1470 1471 1474 1474 1475 1481 1486 1488 1489 1491 1494 1496 1498 1499 1499 1499 1499 1499 1499 1499 1497 1496 1495 1494 1494 1493 1492 1490 1489 1488 1488 1488 1485 1480 1478 1476 1475 1474 1473 1473
1476 1477 1475 1474 1476 1477 1479 1482 1484 1487 1488 1490 1493 1494 1495 1496 1497 1497 1498 1497 1496 1496 1495 1494 1493 1492 1491 1490 1490 1490 1487 1486 1484 1483 1483 1483 1480 1478 1472 1470 1469 1469 1468
1479 1481 1479 1478 1479 1479 1481 1484 1485 1486 1487 1489 1490 1490 1492 1494 1495 1494 1494 1493 1493 1493 1492 1491 1490 1489 1488 1487 1486 1485 1483 1481 1480 1479 1478 1476 1475 1474 1472 1467 1465 1465 1464
1483 1485 1484 1484 1483 1482 1482 1483 1484 1484 1485 1486 1487 1488 1488 1489 1490 1490 1490 1490 1490 1490 1489 1487 1486 1485 1484 1483 1482 1480 1479 1477 1476 1474 1472 1471 1470 1468 1467 1465 1462 1461 1460
1487 1488 1488 1488 1487 1486 1486 1484 1483 1483 1484 1484 1484 1484 1484 1485 1485 1485 1485 1485 1486 1486 1486 1484 1482 1481 1480 1479 1478 1476 1474 1473 1471 1469 1467 1465 1464 1463 1462 1460 1458 1457 1455
1489 1490 1491 1491 1490 1490 1488 1486 1485 1484 1484 1483 1482 1482 1481 1481 1480 1480 1480 1480 1480 1480 1480 1479 1478 1477 1476 1475 1474 1472 1470 1468 1466 1464 1462 1460 1458 1457 1456 1455 1454 1451 1450
1490 1491 1491 1491 1491 1490 1488 1487 1485 1484 1483 1482 1481 1480 1478 1478 1476 1476 1475 1475 1474 1474 1473 1472 1472 1471 1471 1470 1469 1467 1465 1463 1461 1459 1456 1454 1452 1450 1449 1448 1447 1447 1445
1491 1492 1491 1491 1490 1489 1487 1485 1484 1482 1481 1479 1478 1476 1474 1473 1472 1471 1470 1469 1468 1467 1466 1466 1465 1465 1465 1464 1464 1462 1461 1458 1456 1453 1451 1448 1446 1443 1442 1440 1439 1440 1440
1493 1493 1492 1490 1489 1487 1486 1484 1482 1480 1478 1476 1473 1471 1469 1468 1466 1465 1464 1462 1461 1460 1459 1459 1458 1458 1458 1458 1457 1456 1455 1453 1451 1448 1446 1443 1440 1437 1435 1434 1433 1432 1433
1493 1492 1490 1488 1486 1484 1482 1481 1478 1476 1474 1471 1469 1466 1464 1462 1460 1459 1457 1456 1454 1453 1452 1451 1450 1450 1450 1451 1450 1450 1449 1448 1446 1443 1441 1438 1436 1433 1430 1428 1427 1426 1427
1491 1489 1486 1484 1482 1480 1478 1476 1474 1471 1469 1466 1464 1461 1459 1457 1455 1453 1450 1449 1447 1445 1444 1443 1443 1442 1442 1443 1443 1443 1443 1442 1441 1439 1436 1434 1431 1429 1426 1424 1422 1422 1423
1487 1484 1482 1480 1478 1476 1474 1471 1469 1467 1464 1461 1459 1456 1454 1452 1449 1447 1445 1443 1441 1439 1437 1436 1435 1435 1435 1435 1435 1436 1436 1436 1435 1434 1432 1431 1428 1426 1423 1421 1420 1420 1420
1483 1480 1478 1476 1474 1472 1469 1467 1464 1461 1459 1456 1454 1451 1449 1447 1444 1442 1440 1438 1436 1434 1432 1431 1429 1428 1428 1428 1428 1429 1429 1430 1430 1429 1429 1428 1426 1424 1422 1420 1419 1419 1420
1478 1477 1475 1472 1470 1467 1464 1461 1458 1455 1452 1449 1447 1445 1443 1441 1438 1436 1434 1432 1430 1429 1427 1426 1424 1423 1422 1421 1420 1422 1422 1423 1425 1425 1425 1425 1424 1423 1422 1421 1420 1421 1421
1476 1474 1471 1467 1464 1461 1457 1454 1451 1448 1446 1443 1440 1438 1436 1433 1431 1430 1428 1426 1424 1423 1422 1420 1419 1417 1415 1414 1413 1414 1416 1417 1419 1420 1421 1422 1422 1423 1423 1423 1422 1423 1424
1472 1468 1465 1461 1458 1454 1450 1447 1444 1441 1438 1435 1432 1430 1428 1426 1424 1422 1420 1419 1418 1416 1415 1414 1413 1411 1409 1408 1407 1407 1409 1411 1414 1415 1417 1419 1421 1422 1423 1424 1424 1425 1427
1467 1463 1459 1455 1450 1447 1443 1439 1436 1433 1430 1427 1425 1422 1420 1418 1416 1414 1413 1412 1410 1409 1408 1407 1406 1405 1403 1402 1401 1402 1403 1406 1409 1411 1414 1416 1419 1421 1423 1424 1425 1427 1429
1462 1457 1451 1447 1442 1438 1435 1431 1428 1424 1421 1419 1416 1414 1411 1409 1407 1405 1404 1404 1403 1402 1401 1400 1400 1399 1398 1397 1396 1396 1398 1401 1404 1407 1411 1414 1417 1420 1423 1425 1426 1428 1431
1454 1449 1443 1439 1434 1430 1426 1422 1418 1415 1412 1409 1406 1404 1402 1400 1398 1396 1396 1395 1395 1394 1394 1394 1393 1393 1393 1392 1391 1391 1393 1396 1399 1403 1407 1412 1416 1420 1423 1426 1428 1430 1433
1446 1441 1435 1430 1426 1422 1417 1412 1408 1405 1402 1399 1396 1393 1391 1390 1389 1387 1387 1387 1387 1387 1387 1387 1387 1387 1387 1386 1386 1386 1388 1391 1395 1399 1404 1409 1415 1419 1423 1427 1430 1432 1435
1439 1434 1428 1422 1417 1413 1408 1403 1398 1395 1391 1387 1383 1381 1380 1379 1378 1377 1377 1378 1378 1379 1380 1381 1381 1381 1382 1381 1381 1382 1384 1387 1391 1397 1402 1408 1414 1419 1424 1428 1431 1434 1437
1432 1426 1420 1414 1408 1404 1398 1393 1387 1382 1378 1374 1371 1369 1368 1367 1367 1367 1368 1369 1370 1372 1373 1375 1376 1377 1377 1377 1377 1378 1381 1384 1389 1394 1402 1408 1413 1419 1424 1428 1432 1435 1438
1426 1420 1414 1406 1399 1393 1386 1380 1375 1370 1366 1363 1360 1358 1358 1357 1358 1358 1359 1360 1362 1365 1367 1369 1371 1373 1373 1374 1374 1374 1378 1382 1387 1393 1400 1406 1413 1418 1423 1428 1432 1435 1439
1420 1413 1406 1398 1390 1382 1375 1369 1364 1360 1356 1352 1350 1349 1348 1348 1349 1350 1351 1353 1356 1358 1361 1364 1367 1368 1369 1371 1372 1373 1376 1381 1387 1393 1399 1406 1412 1418 1423 1427 1431 1435 1439